Time,TemperatureF,DewpointF,PressureIn,WindDirection,WindDirectionDegrees,WindSpeedMPH,WindSpeedGustMPH,Humidity,HourlyPrecipIn,Conditions,Clouds,dailyrainin,SoftwareType,DateUTC
2013-09-25 00:01:00,37.8,37.0,29.81,NE,38,0.0,0.0,95,0.00,,,0.00,weatherlink.com 1.10,2013-09-25 07:01:00,
2013-09-25 00:16:00,37.5,36.0,29.82,NE,38,0.0,0.0,95,0.00,,,0.00,weatherlink.com 1.10,2013-09-25 07:16:00,
2013-09-25 00:31:00,37.2,36.0,29.82,NE,38,0.0,0.0,95,0.00,,,0.00,weatherlink.com 1.10,2013-09-25 07:31:00,
2013-09-25 00:46:00,36.9,36.0,29.82,NE,38,0.0,0.0,95,0.00,,,0.00,weatherlink.com 1.10,2013-09-25 07:46:00,
2013-09-25 01:01:00,36.7,35.0,29.82,NE,38,0.0,0.0,95,0.00,,,0.00,weatherlink.com 1.10,2013-09-25 08:01:00,
2013-09-25 01:16:00,36.4,35.0,29.82,NE,38,0.0,0.0,95,0.00,,,0.00,weatherlink.com 1.10,2013-09-25 08:16:00,
2013-09-25 01:31:00,36.0,35.0,29.82,NE,38,0.0,0.0,95,0.00,,,0.00,weatherlink.com 1.10,2013-09-25 08:31:00,
2013-09-25 01:46:00,35.7,34.0,29.82,NE,38,0.0,0.0,95,0.00,,,0.00,weatherlink.com 1.10,2013-09-25 08:46:00,
2013-09-25 02:01:00,35.5,34.0,29.82,NE,38,0.0,0.0,95,0.00,,,0.00,weatherlink.com 1.10,2013-09-25 09:01:00,
2013-09-25 02:16:00,35.3,34.0,29.82,NE,38,0.0,0.0,95,0.00,,,0.00,weatherlink.com 1.10,2013-09-25 09:16:00,
2013-09-25 02:31:00,35.1,34.0,29.82,NE,38,0.0,0.0,95,0.00,,,0.00,weatherlink.com 1.10,2013-09-25 09:31:00,
2013-09-25 02:46:00,35.0,34.0,29.82,NE,38,0.0,0.0,96,0.00,,,0.00,weatherlink.com 1.10,2013-09-25 09:46:00,
2013-09-25 03:01:00,35.1,34.0,29.82,NE,38,0.0,0.0,96,0.00,,,0.00,weatherlink.com 1.10,2013-09-25 10:01:00,
2013-09-25 03:16:00,35.3,35.0,29.82,NE,38,0.0,0.0,97,0.00,,,0.00,weatherlink.com 1.10,2013-09-25 10:16:00,
2013-09-25 03:31:00,35.8,35.0,29.82,NE,38,0.0,0.0,97,0.00,,,0.00,weatherlink.com 1.10,2013-09-25 10:31:00,
2013-09-25 03:46:00,36.1,35.0,29.82,NE,38,0.0,0.0,97,0.00,,,0.00,weatherlink.com 1.10,2013-09-25 10:46:00,
2013-09-25 04:01:00,36.4,36.0,29.83,NE,38,0.0,0.0,97,0.00,,,0.00,weatherlink.com 1.10,2013-09-25 11:01:00,
2013-09-25 04:16:00,36.6,36.0,29.83,NE,38,0.0,0.0,97,0.00,,,0.00,weatherlink.com 1.10,2013-09-25 11:16:00,
2013-09-25 04:31:00,36.9,36.0,29.83,NE,38,0.0,0.0,97,0.00,,,0.00,weatherlink.com 1.10,2013-09-25 11:31:00,
2013-09-25 04:46:00,37.1,36.0,29.83,NE,38,0.0,0.0,97,0.00,,,0.00,weatherlink.com 1.10,2013-09-25 11:46:00,
2013-09-25 05:01:00,37.3,37.0,29.83,NE,38,0.0,0.0,97,0.00,,,0.00,weatherlink.com 1.10,2013-09-25 12:01:00,
2013-09-25 05:16:00,37.5,37.0,29.83,NE,38,0.0,0.0,97,0.00,,,0.00,weatherlink.com 1.10,2013-09-25 12:16:00,
2013-09-25 05:31:00,37.7,37.0,29.83,NE,38,0.0,0.0,97,0.00,,,0.00,weatherlink.com 1.10,2013-09-25 12:31:00,
2013-09-25 05:46:00,37.8,37.0,29.84,NE,38,0.0,0.0,97,0.00,,,0.00,weatherlink.com 1.10,2013-09-25 12:46:00,
2013-09-25 06:02:00,37.9,37.0,29.84,NE,38,0.0,0.0,97,0.00,,,0.00,weatherlink.com 1.10,2013-09-25 13:02:00,
2013-09-25 06:16:00,38.1,37.0,29.84,NE,38,0.0,0.0,97,0.00,,,0.00,weatherlink.com 1.10,2013-09-25 13:16:00,
2013-09-25 06:31:00,38.2,38.0,29.84,NE,38,0.0,0.0,97,0.00,,,0.00,weatherlink.com 1.10,2013-09-25 13:31:00,
2013-09-25 06:46:00,38.5,38.0,29.84,NE,38,0.0,0.0,97,0.00,,,0.00,weatherlink.com 1.10,2013-09-25 13:46:00,
2013-09-25 07:01:00,38.6,38.0,29.84,NE,38,0.0,0.0,97,0.00,,,0.00,weatherlink.com 1.10,2013-09-25 14:01:00,
2013-09-25 07:16:00,38.7,38.0,29.85,NE,38,0.0,0.0,97,0.00,,,0.00,weatherlink.com 1.10,2013-09-25 14:16:00,
2013-09-25 07:31:00,38.8,38.0,29.85,NE,38,0.0,0.0,97,0.00,,,0.00,weatherlink.com 1.10,2013-09-25 14:31:00,
2013-09-25 07:46:00,38.8,38.0,29.85,NE,38,0.0,0.0,97,0.00,,,0.00,weatherlink.com 1.10,2013-09-25 14:46:00,
2013-09-25 08:01:00,39.2,39.0,29.85,NE,38,0.0,0.0,97,0.00,,,0.00,weatherlink.com 1.10,2013-09-25 15:01:00,
2013-09-25 08:16:00,39.9,39.0,29.85,NE,38,0.0,0.0,98,0.00,,,0.00,weatherlink.com 1.10,2013-09-25 15:16:00,
2013-09-25 08:31:00,40.7,40.0,29.85,NE,38,0.0,0.0,98,0.00,,,0.00,weatherlink.com 1.10,2013-09-25 15:31:00,
2013-09-25 08:46:00,41.7,41.0,29.85,NE,38,0.0,0.0,98,0.00,,,0.00,weatherlink.com 1.10,2013-09-25 15:46:00,
2013-09-25 09:01:00,42.9,42.0,29.85,NE,38,0.0,0.0,98,0.00,,,0.00,weatherlink.com 1.10,2013-09-25 16:01:00,
2013-09-25 09:17:00,43.8,43.0,29.85,NE,38,0.0,0.0,98,0.00,,,0.00,weatherlink.com 1.10,2013-09-25 16:17:00,
2013-09-25 09:32:00,45.6,45.0,29.85,NE,38,0.0,0.0,97,0.00,,,0.00,weatherlink.com 1.10,2013-09-25 16:32:00,
2013-09-25 09:47:00,47.0,44.0,29.85,ESE,105,0.0,1.0,90,0.00,,,0.00,weatherlink.com 1.10,2013-09-25 16:47:00,
2013-09-25 10:02:00,48.6,45.0,29.84,ESE,106,0.0,0.0,87,0.00,,,0.00,weatherlink.com 1.10,2013-09-25 17:02:00,
2013-09-25 10:17:00,49.8,45.0,29.84,ESE,106,0.0,0.0,84,0.00,,,0.00,weatherlink.com 1.10,2013-09-25 17:17:00,
2013-09-25 10:47:00,52.9,44.0,29.83,East,88,0.0,0.0,72,0.00,,,0.00,weatherlink.com 1.10,2013-09-25 17:47:00,
2013-09-25 11:02:00,55.2,46.0,29.83,East,96,0.0,1.0,70,0.00,,,0.00,weatherlink.com 1.10,2013-09-25 18:02:00,
2013-09-25 11:17:00,55.6,43.0,29.83,SE,143,0.0,1.0,62,0.00,,,0.00,weatherlink.com 1.10,2013-09-25 18:17:00,
2013-09-25 11:32:00,56.2,45.0,29.82,SE,143,0.0,1.0,66,0.00,,,0.00,weatherlink.com 1.10,2013-09-25 18:32:00,
2013-09-25 11:47:00,57.3,43.0,29.82,SE,124,0.0,2.0,60,0.00,,,0.00,weatherlink.com 1.10,2013-09-25 18:47:00,
2013-09-25 12:02:00,58.1,44.0,29.81,ESE,103,0.0,3.0,60,0.00,,,0.00,weatherlink.com 1.10,2013-09-25 19:02:00,
2013-09-25 12:17:00,59.0,44.0,29.81,ESE,107,0.0,3.0,57,0.00,,,0.00,weatherlink.com 1.10,2013-09-25 19:17:00,
2013-09-25 12:32:00,59.7,44.0,29.81,West,279,0.0,6.0,56,0.00,,,0.00,weatherlink.com 1.10,2013-09-25 19:32:00,
2013-09-25 12:47:00,60.0,43.0,29.81,ESE,120,0.0,4.0,54,0.00,,,0.00,weatherlink.com 1.10,2013-09-25 19:47:00,
2013-09-25 13:02:00,59.9,43.0,29.81,South,178,0.0,6.0,55,0.00,,,0.00,weatherlink.com 1.10,2013-09-25 20:02:00,
2013-09-25 13:17:00,59.8,46.0,29.81,NNE,27,0.0,2.0,60,0.00,,,0.00,weatherlink.com 1.10,2013-09-25 20:17:00,
2013-09-25 13:32:00,59.5,44.0,29.81,ENE,63,0.0,5.0,56,0.00,,,0.00,weatherlink.com 1.10,2013-09-25 20:32:00,
2013-09-25 13:47:00,58.8,42.0,29.81,SW,234,1.0,6.0,55,0.00,,,0.00,weatherlink.com 1.10,2013-09-25 20:47:00,
2013-09-25 14:02:00,58.9,44.0,29.82,ENE,78,2.0,4.0,59,0.00,,,0.00,weatherlink.com 1.10,2013-09-25 21:02:00,
2013-09-25 14:17:00,59.3,41.0,29.82,SSW,207,2.0,3.0,52,0.00,,,0.00,weatherlink.com 1.10,2013-09-25 21:17:00,
2013-09-25 14:32:00,59.2,42.0,29.82,West,277,2.0,8.0,54,0.00,,,0.00,weatherlink.com 1.10,2013-09-25 21:32:00,
2013-09-25 14:47:00,59.6,46.0,29.82,NNE,13,0.0,3.0,62,0.00,,,0.00,weatherlink.com 1.10,2013-09-25 21:47:00,
2013-09-25 15:02:00,59.8,42.0,29.83,East,95,0.0,3.0,52,0.00,,,0.00,weatherlink.com 1.10,2013-09-25 22:02:00,
2013-09-25 15:17:00,59.8,43.0,29.82,East,98,1.0,9.0,54,0.00,,,0.00,weatherlink.com 1.10,2013-09-25 22:17:00,
2013-09-25 15:32:00,59.6,43.0,29.83,ENE,66,0.0,5.0,55,0.00,,,0.00,weatherlink.com 1.10,2013-09-25 22:32:00,
2013-09-25 15:47:00,58.2,43.0,29.84,SW,233,0.0,3.0,58,0.00,,,0.00,weatherlink.com 1.10,2013-09-25 22:47:00,
2013-09-25 16:02:00,55.0,48.0,29.84,NNE,32,2.0,6.0,77,0.02,,,0.02,weatherlink.com 1.10,2013-09-25 23:02:00,
2013-09-25 16:17:00,52.3,48.0,29.84,ENE,65,0.0,2.0,85,0.02,,,0.02,weatherlink.com 1.10,2013-09-25 23:17:00,
2013-09-25 16:32:00,51.6,48.0,29.84,NNE,18,0.0,0.0,88,0.02,,,0.02,weatherlink.com 1.10,2013-09-25 23:32:00,
2013-09-25 16:48:00,51.7,49.0,29.85,NNE,18,0.0,0.0,89,0.02,,,0.02,weatherlink.com 1.10,2013-09-25 23:48:00,
2013-09-25 17:02:00,51.2,47.0,29.85,ENE,61,0.0,4.0,86,0.00,,,0.02,weatherlink.com 1.10,2013-09-26 00:02:00,
2013-09-25 17:17:00,51.0,45.0,29.85,ESE,114,0.0,0.0,80,0.00,,,0.02,weatherlink.com 1.10,2013-09-26 00:17:00,
2013-09-25 17:32:00,51.0,45.0,29.86,South,178,0.0,0.0,80,0.00,,,0.02,weatherlink.com 1.10,2013-09-26 00:32:00,
2013-09-25 17:48:00,50.9,45.0,29.86,ESE,121,0.0,0.0,80,0.00,,,0.02,weatherlink.com 1.10,2013-09-26 00:48:00,
2013-09-25 18:03:00,50.3,46.0,29.87,NE,35,0.0,0.0,85,0.00,,,0.02,weatherlink.com 1.10,2013-09-26 01:03:00,
2013-09-25 18:18:00,50.3,45.0,29.87,NNE,30,0.0,2.0,83,0.00,,,0.02,weatherlink.com 1.10,2013-09-26 01:18:00,
2013-09-25 18:33:00,50.1,45.0,29.88,SE,140,0.0,2.0,82,0.00,,,0.02,weatherlink.com 1.10,2013-09-26 01:33:00,
2013-09-25 18:48:00,49.5,45.0,29.88,East,94,0.0,1.0,83,0.00,,,0.02,weatherlink.com 1.10,2013-09-26 01:48:00,
2013-09-25 19:03:00,48.5,45.0,29.89,East,94,0.0,0.0,86,0.00,,,0.02,weatherlink.com 1.10,2013-09-26 02:03:00,
2013-09-25 19:18:00,47.5,44.0,29.89,East,96,0.0,0.0,87,0.00,,,0.02,weatherlink.com 1.10,2013-09-26 02:18:00,
2013-09-25 19:33:00,46.6,44.0,29.90,East,96,0.0,0.0,89,0.00,,,0.02,weatherlink.com 1.10,2013-09-26 02:33:00,
2013-09-25 19:48:00,46.0,43.0,29.91,East,96,0.0,0.0,90,0.00,,,0.02,weatherlink.com 1.10,2013-09-26 02:48:00,
2013-09-25 20:03:00,45.4,43.0,29.91,East,94,0.0,0.0,90,0.00,,,0.02,weatherlink.com 1.10,2013-09-26 03:03:00,
2013-09-25 20:18:00,44.9,43.0,29.92,East,94,0.0,0.0,91,0.00,,,0.02,weatherlink.com 1.10,2013-09-26 03:18:00,
2013-09-25 20:33:00,44.5,42.0,29.92,East,94,0.0,0.0,91,0.00,,,0.02,weatherlink.com 1.10,2013-09-26 03:33:00,
2013-09-25 20:48:00,44.3,42.0,29.93,East,94,0.0,0.0,92,0.00,,,0.02,weatherlink.com 1.10,2013-09-26 03:48:00,
2013-09-25 21:03:00,44.1,42.0,29.93,East,94,0.0,0.0,92,0.00,,,0.02,weatherlink.com 1.10,2013-09-26 04:03:00,
2013-09-25 21:18:00,44.1,42.0,29.93,East,94,0.0,0.0,93,0.00,,,0.02,weatherlink.com 1.10,2013-09-26 04:18:00,
2013-09-25 21:33:00,43.9,42.0,29.94,East,94,0.0,0.0,92,0.00,,,0.02,weatherlink.com 1.10,2013-09-26 04:33:00,
2013-09-25 21:48:00,43.6,42.0,29.94,East,94,0.0,0.0,92,0.00,,,0.02,weatherlink.com 1.10,2013-09-26 04:48:00,
2013-09-25 22:03:00,43.2,41.0,29.94,East,94,0.0,0.0,92,0.00,,,0.02,weatherlink.com 1.10,2013-09-26 05:03:00,
2013-09-25 22:18:00,42.7,41.0,29.94,East,94,0.0,0.0,92,0.00,,,0.02,weatherlink.com 1.10,2013-09-26 05:18:00,
2013-09-25 22:33:00,42.2,40.0,29.95,East,94,0.0,0.0,93,0.00,,,0.02,weatherlink.com 1.10,2013-09-26 05:33:00,
2013-09-25 22:48:00,41.7,40.0,29.95,East,94,0.0,0.0,93,0.00,,,0.02,weatherlink.com 1.10,2013-09-26 05:48:00,
2013-09-25 23:03:00,41.2,39.0,29.95,East,94,0.0,0.0,93,0.00,,,0.02,weatherlink.com 1.10,2013-09-26 06:03:00,
2013-09-25 23:18:00,40.8,39.0,29.95,East,94,0.0,0.0,93,0.00,,,0.02,weatherlink.com 1.10,2013-09-26 06:18:00,
2013-09-25 23:33:00,40.4,39.0,29.96,East,94,0.0,0.0,94,0.00,,,0.02,weatherlink.com 1.10,2013-09-26 06:33:00,
2013-09-25 23:48:00,40.1,39.0,29.96,East,94,0.0,0.0,95,0.00,,,0.02,weatherlink.com 1.10,2013-09-26 06:48:00,